TimePST,TemperatureF,Dew PointF,Humidity,Sea Level PressureIn,VisibilityMPH,Wind Direction,Wind SpeedMPH,Gust SpeedMPH,PrecipitationIn,Events,Conditions,WindDirDegrees,DateUTC
12:15 AM,37.4,32.0,81,29.84,10.0,South,10.4,19.6,N/A,,Partly Cloudy,170,2012-12-19 08:15:00
12:35 AM,37.4,32.0,81,29.84,10.0,SSE,9.2,18.4,N/A,,Mostly Cloudy,160,2012-12-19 08:35:00
12:55 AM,37.4,32.0,81,29.83,10.0,South,10.4,19.6,N/A,,Mostly Cloudy,170,2012-12-19 08:55:00
1:15 AM,37.4,32.0,81,29.84,10.0,South,9.2,16.1,N/A,,Mostly Cloudy,180,2012-12-19 09:15:00
1:35 AM,37.4,32.0,81,29.82,10.0,SSE,11.5,23.0,N/A,,Mostly Cloudy,160,2012-12-19 09:35:00
2:15 AM,37.4,32.0,81,29.79,10.0,SSE,10.4,23.0,N/A,,Scattered Clouds,160,2012-12-19 10:15:00
2:35 AM,37.4,32.0,81,29.78,10.0,SSE,11.5,24.2,N/A,,Partly Cloudy,160,2012-12-19 10:35:00
2:55 AM,37.4,32.0,81,29.77,10.0,SSE,9.2,33.4,N/A,,Scattered Clouds,150,2012-12-19 10:55:00
3:15 AM,37.4,32.0,81,29.76,10.0,SSE,12.7,26.5,N/A,,Overcast,150,2012-12-19 11:15:00
3:35 AM,37.4,32.0,81,29.75,10.0,SSE,10.4,24.2,N/A,Rain,Light Rain,150,2012-12-19 11:35:00
3:55 AM,37.4,32.0,81,29.73,8.0,SSE,15.0,25.3,N/A,Rain,Light Rain,150,2012-12-19 11:55:00
4:15 AM,37.4,32.0,81,29.72,5.0,SE,15.0,29.9,N/A,Rain,Light Rain,140,2012-12-19 12:15:00
4:55 AM,37.4,32.0,81,29.67,10.0,South,10.4,24.2,N/A,,Scattered Clouds,170,2012-12-19 12:55:00
5:15 AM,37.4,32.0,81,29.67,10.0,SSE,12.7,27.6,N/A,,Scattered Clouds,160,2012-12-19 13:15:00
5:35 AM,37.4,32.0,81,29.67,10.0,South,13.8,26.5,N/A,,Mostly Cloudy,170,2012-12-19 13:35:00
5:55 AM,37.4,32.0,81,29.66,8.0,South,8.1,23.0,N/A,Rain,Light Rain,170,2012-12-19 13:55:00
6:15 AM,37.4,32.0,81,29.65,10.0,South,11.5,19.6,N/A,,Partly Cloudy,170,2012-12-19 14:15:00
6:35 AM,39.2,32.0,75,29.64,10.0,South,10.4,23.0,N/A,,Partly Cloudy,170,2012-12-19 14:35:00
7:15 AM,39.2,32.0,75,29.62,10.0,SSE,13.8,36.8,N/A,,Clear,160,2012-12-19 15:15:00
7:35 AM,39.2,32.0,75,29.60,10.0,SSE,15.0,26.5,N/A,,Partly Cloudy,160,2012-12-19 15:35:00
7:55 AM,39.2,32.0,75,29.60,10.0,South,15.0,24.2,N/A,,Mostly Cloudy,170,2012-12-19 15:55:00
8:15 AM,39.2,33.8,81,29.59,10.0,SSE,12.7,29.9,N/A,,Mostly Cloudy,160,2012-12-19 16:15:00
8:35 AM,39.2,33.8,81,29.57,10.0,SSE,16.1,31.1,N/A,,Mostly Cloudy,160,2012-12-19 16:35:00
8:55 AM,39.2,33.8,81,29.58,10.0,South,13.8,32.2,N/A,,Mostly Cloudy,170,2012-12-19 16:55:00
9:15 AM,39.2,35.6,87,29.59,2.5,South,13.8,31.1,0.01,,Mostly Cloudy,170,2012-12-19 17:15:00
9:35 AM,39.2,35.6,87,29.57,5.0,South,13.8,23.0,0.02,Rain,Light Rain,170,2012-12-19 17:35:00
9:55 AM,39.2,35.6,87,29.56,5.0,South,15.0,32.2,0.02,Rain,Light Rain,170,2012-12-19 17:55:00
10:15 AM,39.2,35.6,87,29.56,6.0,South,13.8,25.3,N/A,Rain,Light Rain,170,2012-12-19 18:15:00
10:35 AM,39.2,35.6,87,29.55,9.0,SSE,10.4,28.8,N/A,Rain,Light Rain,160,2012-12-19 18:35:00
10:55 AM,39.2,35.6,87,29.55,10.0,South,15.0,28.8,N/A,,Partly Cloudy,180,2012-12-19 18:55:00
11:15 AM,39.2,35.6,87,29.55,10.0,SSE,12.7,20.7,N/A,,Mostly Cloudy,160,2012-12-19 19:15:00
11:35 AM,39.2,35.6,87,29.55,10.0,South,11.5,20.7,N/A,,Scattered Clouds,170,2012-12-19 19:35:00
11:55 AM,39.2,35.6,87,29.53,10.0,South,15.0,28.8,N/A,,Mostly Cloudy,170,2012-12-19 19:55:00
12:15 PM,41.0,35.6,81,29.53,10.0,SSE,11.5,26.5,N/A,,Mostly Cloudy,160,2012-12-19 20:15:00
12:35 PM,41.0,35.6,81,29.52,10.0,South,10.4,26.5,N/A,,Mostly Cloudy,170,2012-12-19 20:35:00
12:55 PM,41.0,35.6,81,29.51,10.0,South,17.3,26.5,N/A,,Scattered Clouds,170,2012-12-19 20:55:00
1:15 PM,41.0,35.6,81,29.50,8.0,SSE,15.0,31.1,N/A,Rain,Light Rain,160,2012-12-19 21:15:00
1:35 PM,41.0,37.4,87,29.49,5.0,South,11.5,33.4,N/A,Rain,Light Rain,170,2012-12-19 21:35:00
1:55 PM,39.2,37.4,93,29.50,4.0,SSE,10.4,26.5,N/A,Rain,Light Rain,160,2012-12-19 21:55:00
2:15 PM,41.0,37.4,87,29.50,6.0,South,15.0,25.3,N/A,Rain,Light Rain,170,2012-12-19 22:15:00
2:35 PM,41.0,37.4,87,29.49,10.0,South,16.1,34.5,N/A,,Mostly Cloudy,170,2012-12-19 22:35:00
2:55 PM,41.0,37.4,87,29.49,8.0,South,15.0,27.6,N/A,Rain,Light Rain,180,2012-12-19 22:55:00
3:15 PM,41.0,37.4,87,29.50,10.0,South,16.1,26.5,0.01,,Partly Cloudy,180,2012-12-19 23:15:00
3:35 PM,41.0,37.4,87,29.49,10.0,South,10.4,27.6,0.01,,Partly Cloudy,170,2012-12-19 23:35:00
3:55 PM,41.0,37.4,87,29.47,10.0,South,15.0,32.2,0.01,,Scattered Clouds,170,2012-12-19 23:55:00
4:15 PM,41.0,35.6,81,29.48,10.0,South,13.8,28.8,N/A,,Scattered Clouds,180,2012-12-20 00:15:00
4:35 PM,41.0,35.6,81,29.48,10.0,South,13.8,25.3,N/A,,Mostly Cloudy,170,2012-12-20 00:35:00
4:55 PM,41.0,35.6,81,29.49,10.0,South,11.5,28.8,N/A,,Mostly Cloudy,170,2012-12-20 00:55:00
5:15 PM,41.0,35.6,81,29.49,10.0,SSE,17.3,31.1,N/A,,Mostly Cloudy,160,2012-12-20 01:15:00
5:35 PM,41.0,35.6,81,29.50,10.0,South,15.0,26.5,N/A,,Mostly Cloudy,170,2012-12-20 01:35:00
5:55 PM,41.0,35.6,81,29.50,10.0,South,12.7,24.2,N/A,,Mostly Cloudy,170,2012-12-20 01:55:00
6:15 PM,41.0,35.6,81,29.51,10.0,South,9.2,32.2,N/A,,Mostly Cloudy,170,2012-12-20 02:15:00
6:35 PM,41.0,37.4,87,29.51,10.0,SSE,13.8,27.6,N/A,,Mostly Cloudy,160,2012-12-20 02:35:00
6:55 PM,41.0,37.4,87,29.51,10.0,South,11.5,23.0,N/A,,Mostly Cloudy,170,2012-12-20 02:55:00
7:15 PM,41.0,37.4,87,29.53,10.0,South,16.1,24.2,N/A,,Mostly Cloudy,180,2012-12-20 03:15:00
7:35 PM,42.8,37.4,81,29.53,10.0,South,12.7,29.9,N/A,,Mostly Cloudy,180,2012-12-20 03:35:00
7:55 PM,42.8,37.4,81,29.53,10.0,South,11.5,27.6,N/A,,Overcast,170,2012-12-20 03:55:00
8:15 PM,42.8,37.4,81,29.55,10.0,South,11.5,23.0,N/A,,Overcast,180,2012-12-20 04:15:00
8:35 PM,42.8,37.4,81,29.56,10.0,South,15.0,27.6,N/A,,Overcast,180,2012-12-20 04:35:00
8:55 PM,42.8,37.4,81,29.54,10.0,South,16.1,26.5,N/A,,Overcast,180,2012-12-20 04:55:00
9:15 PM,42.8,37.4,81,29.54,10.0,South,13.8,23.0,N/A,,Overcast,170,2012-12-20 05:15:00
9:35 PM,42.8,37.4,81,29.53,10.0,South,10.4,25.3,N/A,,Mostly Cloudy,170,2012-12-20 05:35:00
9:55 PM,42.8,37.4,81,29.55,10.0,South,11.5,24.2,N/A,,Mostly Cloudy,180,2012-12-20 05:55:00
10:15 PM,42.8,39.2,87,29.55,10.0,SSE,8.1,17.3,N/A,Rain,Light Rain,160,2012-12-20 06:15:00
10:35 PM,41.0,39.2,93,29.56,10.0,South,6.9,18.4,N/A,Rain,Light Rain,170,2012-12-20 06:35:00
10:55 PM,41.0,39.2,93,29.54,6.0,SSE,10.4,16.1,N/A,Rain,Light Rain,160,2012-12-20 06:55:00
11:15 PM,41.0,39.2,93,29.54,7.0,SSE,8.1,17.3,N/A,Rain,Light Rain,160,2012-12-20 07:15:00
11:35 PM,41.0,39.2,93,29.52,6.0,South,6.9,20.7,N/A,Rain,Light Rain,170,2012-12-20 07:35:00
11:55 PM,41.0,39.2,93,29.51,5.0,South,5.8,18.4,N/A,Rain,Light Rain,180,2012-12-20 07:55:00